Location: Unspecified
(45.4615°N, 74.0512°W)
Time: 01:30:13
(UTC-05:00)

Okean 3 - Visible Passes

Search period start: 24 February 2018 00:00
Search period end: 06 March 2018 00:00
Orbit: 576 x 603 km, 82.5° (Epoch: 23 February)

Date Brightness Start Highest point End Pass type
(mag) Time Alt. Az. Time Alt. Az. Time Alt. Az.
24 Feb 6.9 19:36:29 10° WNW 19:38:23 13° W 19:40:18 10° WSW visible
25 Feb 3.4 18:05:36 10° N 18:09:48 86° E 18:13:58 10° S visible
26 Feb 4.0 18:13:45 10° NNW 18:17:54 63° W 18:22:02 10° S visible
27 Feb 4.9 18:22:01 10° NNW 18:25:58 42° W 18:29:55 10° SSW visible
28 Feb 5.8 18:30:23 10° NNW 18:33:59 28° W 18:37:36 10° SSW visible
01 Mar 7.0 05:24:05 10° ESE 05:25:57 13° E 05:27:48 10° ENE visible
01 Mar 6.5 18:38:56 10° NW 18:41:58 20° W 18:45:01 10° SW visible
02 Mar 6.7 05:30:59 10° SE 05:33:53 18° E 05:36:47 10° NE visible
02 Mar 7.0 18:47:48 10° NW 18:49:55 14° W 18:52:03 10° WSW visible
03 Mar 6.0 05:38:21 10° SSE 05:41:51 26° E 05:45:23 10° NNE visible
04 Mar 5.2 05:46:00 10° SSE 05:49:53 38° E 05:53:47 10° NNE visible
05 Mar 4.2 05:53:50 10° S 05:57:56 58° E 06:02:03 10° NNE visible
